TimeCDT,TemperatureF,Dew PointF,Humidity,Sea Level PressureIn,VisibilityMPH,Wind Direction,Wind SpeedMPH,Gust SpeedMPH,PrecipitationIn,Events,Conditions,WindDirDegrees,DateUTC
12:53 AM,64.0,61.0,90,30.15,7.0,Calm,Calm,-,N/A,,Clear,0,2012-10-11 05:53:00
1:53 AM,64.9,62.1,90,30.15,7.0,Calm,Calm,-,N/A,,Clear,0,2012-10-11 06:53:00
2:53 AM,63.0,61.0,93,30.14,7.0,Calm,Calm,-,N/A,,Clear,0,2012-10-11 07:53:00
3:53 AM,64.9,62.1,90,30.15,8.0,NNE,4.6,-,N/A,,Clear,20,2012-10-11 08:53:00
4:53 AM,64.9,61.0,87,30.16,8.0,Calm,Calm,-,N/A,,Clear,0,2012-10-11 09:53:00
5:53 AM,64.0,61.0,90,30.17,7.0,Calm,Calm,-,N/A,,Clear,0,2012-10-11 10:53:00
6:53 AM,64.0,60.1,87,30.18,7.0,NE,3.5,-,N/A,,Clear,50,2012-10-11 11:53:00
7:53 AM,66.0,61.0,84,30.20,7.0,NE,3.5,-,N/A,,Clear,40,2012-10-11 12:53:00
8:53 AM,70.0,63.0,78,30.22,9.0,NE,3.5,-,N/A,,Clear,40,2012-10-11 13:53:00
9:53 AM,75.2,64.4,69,30.23,10.0,Calm,Calm,-,N/A,,Clear,0,2012-10-11 14:53:00
10:53 AM,80.1,63.0,56,30.23,10.0,ENE,4.6,-,N/A,,Clear,60,2012-10-11 15:53:00
11:53 AM,80.1,62.1,54,30.23,10.0,SE,10.4,-,N/A,,Partly Cloudy,140,2012-10-11 16:53:00
12:53 PM,80.1,62.1,54,30.21,10.0,SSE,9.2,-,N/A,,Clear,160,2012-10-11 17:53:00
1:53 PM,80.1,63.0,56,30.18,10.0,SSE,10.4,-,N/A,,Clear,150,2012-10-11 18:53:00
2:53 PM,80.1,62.1,54,30.17,10.0,SSE,9.2,-,N/A,,Clear,160,2012-10-11 19:53:00
3:53 PM,79.0,62.1,56,30.17,10.0,SSE,8.1,-,N/A,,Clear,150,2012-10-11 20:53:00
4:53 PM,78.8,62.6,57,30.16,10.0,SSE,8.1,-,N/A,,Clear,150,2012-10-11 21:53:00
5:53 PM,77.0,64.9,66,30.17,10.0,South,4.6,-,N/A,,Clear,180,2012-10-11 22:53:00
6:53 PM,72.0,64.9,78,30.17,10.0,Calm,Calm,-,N/A,,Clear,0,2012-10-11 23:53:00
7:53 PM,69.8,64.4,83,30.19,9.0,Calm,Calm,-,N/A,,Clear,0,2012-10-12 00:53:00
8:53 PM,68.0,64.0,87,30.20,9.0,Calm,Calm,-,N/A,,Clear,0,2012-10-12 01:53:00
9:53 PM,66.9,64.0,90,30.21,7.0,Calm,Calm,-,N/A,,Clear,0,2012-10-12 02:53:00
10:53 PM,66.0,63.0,90,30.21,6.0,Calm,Calm,-,N/A,,Clear,0,2012-10-12 03:53:00
11:53 PM,66.9,63.0,87,30.21,6.0,Calm,Calm,-,N/A,,Clear,0,2012-10-12 04:53:00